Location: Casa Rossa
(45.2389°N, 12.2056°E)
Time: 04:10:30
(UTC+00:00)

Aureole 1 Rocket - Pass Details

Date: 14 July 2020
Orbit: 377 x 1380 km, 73.9° (Epoch: 11 August)

Event Time Altitude Azimuth Distance (km) Brightness Sun altitude
Exits shadow 00:43:26 29° 146° (SE) 1,247 4.3 -20.3°
Maximum altitude 00:45:13 40° 100° (E) 1,071 4.3 -20.2°
Drops below altitude 10° 00:50:36 10° 33° (NNE) 2,580 7.4 -19.8°
Sets 00:53:36 0° 27° (NNE) 3,709 8.7 -19.6°
